This is the latest recevied weather packets stored in our database for station/object ZL3GL-4. If no packets are shown the sender has not sent any weather packets the latest 10 day(s).
| Time | Temp. | Humidity | Pressure | Rain* | Wind** | Luminosity | Snow |
|---|---|---|---|---|---|---|---|
| 1777810973 | 8.33° C | 100% | 1032 hPa | 0 mm | 0 m/s | - | - |
| 1777810129 | 8.33° C | 100% | 1032.1 hPa | 0 mm | 0 m/s | - | - |
| 1777809289 | 8.33° C | 100% | 1032.1 hPa | 0 mm | 0.45 m/s, 266° | - | - |
| 1777808443 | 8.33° C | 100% | 1032.2 hPa | 0 mm | 0.89 m/s, 278° | - | - |
| 1777807599 | 8.89° C | 100% | 1032.3 hPa | 0 mm | 0.89 m/s, 264° | - | - |
| 1777806755 | 8.89° C | 100% | 1032.3 hPa | 0 mm | 0.89 m/s, 277° | - | - |
| 1777805911 | 8.89° C | 100% | 1032.5 hPa | 0 mm | 1.79 m/s, 263° | - | - |
| 1777803381 | 9.44° C | 100% | 1032.7 hPa | 0 mm | 1.34 m/s, 276° | - | - |
| 1777802537 | 9.44° C | 100% | 1032.7 hPa | 0 mm | 1.34 m/s, 274° | - | - |
| 1777801696 | 10° C | 100% | 1032.7 hPa | 0 mm | 1.34 m/s, 271° | - | - |
| 1777800850 | 10° C | 100% | 1032.7 hPa | 0 mm | 1.79 m/s, 277° | - | - |
| 1777799161 | 10° C | 98% | 1032.5 hPa | 0 mm | 1.79 m/s, 277° | - | - |
| 1777798318 | 10° C | 97% | 1032.6 hPa | 0 mm | 0.89 m/s, 262° | - | - |
| 1777797476 | 10° C | 96% | 1032.7 hPa | 0 mm | 0.89 m/s, 271° | - | - |
| 1777796634 | 10° C | 96% | 1032.7 hPa | 0 mm | 1.79 m/s, 246° | - | - |
| 1777795788 | 10° C | 97% | 1032.9 hPa | 0 mm | 1.79 m/s, 262° | - | - |
| 1777794944 | 10° C | 96% | 1033 hPa | 0 mm | 1.79 m/s, 264° | - | - |
| 1777794100 | 9.44° C | 96% | 1033.1 hPa | 0 mm | 1.79 m/s, 281° | - | - |
| 1777793259 | 10° C | 95% | 1033.1 hPa | 0 mm | 0.89 m/s, 264° | - | - |
| 1777792413 | 10° C | 95% | 1033.1 hPa | 0 mm | 1.34 m/s, 257° | - | - |
| 1777791572 | 10° C | 95% | 1033 hPa | 0 mm | 1.34 m/s, 255° | - | - |
| 1777790725 | 10° C | 93% | 1033 hPa | 0 mm | 1.34 m/s, 263° | - | - |
| 1777789881 | 10.56° C | 92% | 1033.1 hPa | 0 mm | 1.34 m/s, 245° | - | - |
| 1777789037 | 10.56° C | 89% | 1033.2 hPa | 0 mm | 1.34 m/s, 256° | - | - |
| 1777788194 | 11.11° C | 84% | 1033.2 hPa | 0 mm | 0.45 m/s, 218° | - | - |
* Rain latest hour (hover to see other rain measurements)
** Current wind speed in m/s (hover to see current wind gust speed)